Terminal Aerodrome Forecast
Issued by NWS

Home | Current Version | Previous Version | Graphics & Text | Print | Product List | Glossary Off
Versions: 1 2 3 4 5 6 7 8 9 10 11 12 13 14 15 16 17 18

000
FTUS43 KABR 060410 AAB
TAFATY
TAF AMD
KATY 060410Z 0604/0624 14010KT P6SM OVC045
     FM060500 14011KT 5SM -SHRA BR OVC008
     FM061400 15015G25KT 6SM -RA BR BKN010 OVC020=

USA.gov is the U.S. government's official web portal to all federal, state and local government web resources and services.